Temperature
22 22 21 22 24 26 29 33 34 34 34 34 34 34 32 31 30 28 28 26 24 24 24 23 23 22 22 22 21 21 20 20 20 20 20 20 19 19 19 19 19 19 19 19 19 19 18 19 19
22 22 22 25 27 28 31 34 34 34 34 34 34 33 32 31 29 28 26 25 24 24 24 23 23 23 22 22 22 21 21 20 20 20 20 19 19 19 19 19 19 19 19 19 18 19 19 19 19
22 23 26 29 30 32 33 34 34 35 34 34 33 32 31 30 29 27 26 25 23 23 23 23 23 23 22 22 22 21 21 20 20 20 20 19 19 19 19 19 19 19 19 19 19 19 19 19 19
23 25 27 30 32 34 34 35 35 35 33 34 33 31 29 29 29 27 26 25 23 22 23 23 23 23 22 22 21 21 21 20 20 20 20 19 19 19 19 19 19 19 19 18 19 19 19 19 20
24 28 30 32 33 35 35 35 35 35 34 34 32 30 29 28 27 27 26 26 24 22 23 23 23 22 22 22 21 21 21 21 20 20 20 20 19 19 19 19 19 19 19 18 19 19 19 20 20
27 30 31 32 34 35 36 35 35 35 34 33 32 30 28 27 27 27 27 26 25 23 23 23 23 22 22 22 21 21 21 21 21 20 20 20 20 20 20 19 19 19 19 19 19 19 19 20 20
28 30 31 33 34 35 35 35 35 34 32 32 32 30 28 27 27 27 27 27 26 24 23 23 23 22 22 21 21 21 21 21 21 21 20 20 20 20 20 19 19 19 19 19 19 19 19 20 20
29 31 31 33 34 35 35 35 34 34 32 31 30 30 28 27 27 27 27 26 26 24 23 23 22 22 22 21 21 21 21 21 21 21 20 20 20 20 20 20 19 19 19 19 19 19 19 20 20
29 30 30 33 34 34 35 34 34 33 31 30 29 28 28 27 27 26 26 26 25 24 23 22 21 21 21 20 21 21 20 20 20 20 20 20 20 20 20 20 20 20 19 19 19 19 19 19 19
30 30 31 34 34 34 34 33 33 32 30 29 28 27 27 27 26 26 26 25 24 24 23 22 21 20 20 20 19 20 19 20 20 20 19 19 19 19 19 19 19 19 19 19 19 19 19 19 19
31 31 32 33 34 34 33 33 32 31 29 28 27 27 27 26 26 25 25 24 24 23 22 22 21 21 20 20 19 19 19 19 19 19 19 19 18 18 18 18 18 18 18 18 18 18 19 18 19
32 32 32 33 33 33 33 32 30 28 26 26 26 26 26 25 24 24 23 22 22 21 21 21 21 21 21 20 20 19 19 19 19 19 18 18 18 18 18 18 18 18 18 18 18 18 18 18 18
32 32 32 32 32 32 32 31 29 25 24 24 24 24 23 23 22 22 21 21 21 21 20 20 20 20 20 20 20 19 19 19 19 19 18 18 18 18 18 18 18 17 17 17 17 17 17 17 17
32 33 33 32 32 32 31 30 28 25 23 22 22 21 21 21 20 20 20 20 20 20 20 20 19 19 19 19 19 19 18 18 18 18 18 18 18 17 17 17 17 17 17 17 17 17 17 17 17
32 32 32 32 32 31 30 28 27 24 22 21 20 20 20 19 19 19 19 19 19 19 19 19 19 18 18 18 18 18 18 18 18 18 18 18 17 17 17 17 17 17 17 16 16 16 16 17 17
32 31 30 30 30 31 30 26 25 23 22 21 20 20 19 19 19 19 19 19 19 19 18 19 18 18 18 18 18 18 18 18 17 17 17 17 17 17 17 17 17 17 17 16 16 16 16 16 16
31 29 27 25 25 28 30 25 25 23 23 21 21 20 20 19 19 19 18 18 18 18 18 18 18 18 17 17 17 17 17 17 17 17 17 17 17 17 17 17 17 17 17 17 16 16 16 16 16
27 25 24 23 25 27 28 25 25 24 23 22 22 21 20 20 19 19 18 18 18 17 17 17 17 17 17 17 17 17 17 17 17 17 17 16 16 16 16 16 17 17 17 17 17 16 16 16 16
29 28 26 26 27 27 27 26 25 25 24 24 23 22 21 20 20 19 19 19 18 18 17 17 17 17 16 17 17 16 16 17 17 17 16 16 16 16 16 16 16 16 16 16 16 16 16 16 16
31 30 29 27 26 27 27 26 25 26 26 25 23 22 21 21 20 20 20 20 19 18 18 17 16 16 16 16 16 16 16 16 17 17 16 16 15 16 15 15 16 16 16 16 16 16 16 16 16
30 29 29 27 25 26 26 24 24 24 24 24 24 23 22 22 21 21 20 20 20 19 18 17 16 16 15 15 15 15 15 15 16 16 16 15 15 15 15 15 15 16 16 16 16 16 16 16 16
27 28 29 29 27 25 24 22 22 22 23 24 23 23 22 22 21 21 21 20 20 19 18 17 17 16 15 15 14 14 14 14 14 15 15 15 15 15 15 15 15 15 15 15 15 15 16 16 16
29 30 28 26 25 24 21 19 20 21 22 23 24 23 23 22 22 21 21 20 19 19 18 17 17 16 15 14 14 13 13 13 13 13 14 14 14 14 15 15 15 15 15 15 15 15 15 15 16
30 29 25 23 22 20 20 19 21 22 23 24 24 24 23 23 22 21 21 20 19 18 18 17 16 15 14 14 13 13 12 12 12 13 13 13 14 14 14 14 14 14 14 14 15 15 15 15 15
28 27 24 21 19 19 21 20 23 25 25 25 25 24 23 23 22 22 21 20 19 18 18 17 16 15 14 13 13 12 12 12 12 12 13 13 13 13 14 14 14 13 14 14 14 14 14 14 15
29 29 27 25 25 24 23 21 23 26 26 25 25 24 24 23 23 22 21 20 19 18 17 16 15 15 14 13 12 12 12 11 11 11 11 11 12 12 12 13 13 13 13 13 13 13 14 14 14
29 29 30 28 28 27 24 23 24 25 26 26 25 25 24 23 22 22 21 20 19 18 17 16 15 14 13 13 12 12 11 11 10 10 10 10 11 11 11 12 12 12 12 12 12 13 13 13 13
30 30 29 27 26 26 26 24 23 24 25 25 25 25 24 23 22 21 20 19 18 17 16 15 14 13 13 12 11 11 10 10 10 9 9 9 9 10 10 10 11 11 11 12 12 12 12 12 13
29 29 28 28 27 26 26 25 25 25 25 25 25 24 23 22 21 20 19 18 17 16 15 14 14 13 12 12 11 10 10 9 9 9 9 9 9 9 9 9 9 10 10 11 11 11 12 12 12
29 28 28 26 26 27 26 25 26 26 26 25 24 23 22 21 20 19 18 17 16 15 14 14 13 12 12 11 10 10 9 9 9 8 8 8 8 8 8 8 8 9 9 10 10 11 11 11 12
Wind_Speed
14 14 11 8 6 7 5 7 10 10 10 9 8 9 18 16 11 9 10 19 25 22 20 19 18 16 15 14 13 12 12 13 12 12 12 12 11 10 10 9 8 7 7 7 7 8 8 8 9
14 13 10 7 7 7 3 10 10 8 6 3 6 13 18 15 13 11 13 19 23 21 19 18 18 16 15 14 13 12 12 12 12 12 12 12 11 11 10 9 8 7 7 7 7 8 8 9 8
13 15 8 7 11 6 7 10 9 5 5 3 9 13 11 10 11 10 14 20 22 19 18 20 19 17 15 13 12 11 11 12 12 12 12 11 11 10 10 9 8 8 7 7 7 8 8 8 8
8 10 7 10 16 2 6 9 8 6 6 3 10 11 8 7 9 13 15 20 21 19 19 20 18 17 15 13 12 11 10 10 10 10 10 10 10 10 9 9 9 9 9 9 8 8 9 9 8
11 7 12 16 16 4 6 6 5 5 5 6 14 13 11 11 15 15 15 20 19 19 18 19 18 16 15 14 12 11 11 10 10 10 10 10 10 10 10 10 10 9 10 10 9 8 9 9 8
7 9 13 14 10 3 5 7 8 6 9 8 13 15 10 12 12 13 14 15 18 20 18 18 17 16 14 13 12 12 11 11 11 11 11 11 11 11 11 12 12 11 10 11 10 10 9 9 9
11 12 16 19 16 5 5 6 9 10 11 8 8 12 11 11 11 12 12 11 16 21 19 15 16 15 14 13 13 12 12 12 11 11 11 11 11 11 12 12 12 13 12 12 11 11 11 10 10
11 12 18 18 16 4 9 6 8 7 8 11 14 7 12 13 11 12 10 10 12 17 17 14 15 14 13 13 14 13 12 12 12 12 12 12 12 12 13 13 13 13 13 13 13 13 13 12 12
14 13 16 17 11 5 7 7 7 5 13 14 14 15 14 13 12 10 10 10 8 9 11 11 13 13 13 13 15 15 13 13 12 12 13 13 12 14 15 17 18 18 17 16 15 15 15 14 15
13 13 18 17 11 8 8 5 6 4 11 11 10 12 11 10 9 9 8 8 8 6 7 8 8 6 4 3 11 12 12 12 13 12 13 13 13 13 14 19 23 21 20 18 18 17 16 16 14
16 17 19 18 13 9 8 5 3 5 9 11 8 8 8 9 6 7 7 7 8 9 10 10 10 8 7 4 4 5 7 8 12 13 12 12 11 10 10 6 13 17 17 14 15 16 14 14 13
18 17 17 15 12 10 8 6 5 12 10 12 10 8 10 10 10 12 13 13 13 13 12 12 11 10 9 7 3 2 2 2 4 8 11 8 3 5 4 3 4 7 9 9 9 8 12 13 14
15 15 15 14 11 9 6 3 7 12 11 12 13 14 14 13 14 16 16 15 15 14 12 11 10 9 7 6 5 6 5 4 4 4 7 7 5 6 6 5 4 5 7 5 6 6 9 10 8
13 14 11 9 8 5 4 4 7 10 9 11 11 12 14 15 15 15 14 14 13 13 12 10 8 7 6 5 5 4 5 4 4 2 2 3 4 4 5 5 6 5 7 7 5 7 8 8 8
13 14 14 10 6 5 7 6 8 8 9 9 9 9 11 12 12 13 12 12 12 11 11 9 7 8 6 6 6 5 4 3 2 2 2 2 3 3 3 4 5 4 6 6 6 6 7 9 9
16 15 13 1 2 6 8 8 8 7 10 9 8 8 8 9 10 10 10 10 10 9 9 9 9 9 6 4 4 4 4 3 2 2 2 2 2 3 2 3 4 3 4 4 5 6 8 9 8
10 9 4 8 10 8 7 11 9 8 10 10 9 8 8 8 8 8 9 9 9 8 7 7 8 9 9 7 6 5 3 3 2 1 1 2 3 3 3 4 4 3 4 5 6 5 6 7 8
4 4 2 6 8 8 8 11 10 9 10 10 10 9 9 9 9 9 9 9 9 8 7 6 7 7 8 7 6 5 5 5 3 2 3 4 4 4 3 4 5 4 4 5 5 6 5 4 6
9 11 12 11 3 1 7 11 11 11 10 11 11 10 11 11 10 9 9 10 9 7 6 5 6 6 6 5 6 6 5 5 4 2 4 4 5 6 5 5 4 5 6 7 7 6 5 5 6
10 9 1 5 4 5 5 9 8 8 8 11 12 12 12 12 10 8 8 7 7 6 4 5 5 5 6 5 7 6 6 6 5 2 2 1 4 5 7 5 5 5 6 7 8 6 4 5 6
10 13 8 3 8 12 5 5 8 6 6 8 10 11 11 11 9 6 4 5 5 5 4 5 4 4 6 7 7 8 7 7 6 5 4 1 3 4 4 5 6 6 5 6 7 7 7 6 6
5 10 13 8 5 5 4 3 7 8 8 8 9 9 10 8 6 3 2 4 5 6 6 5 6 6 7 8 9 11 9 9 9 7 7 7 6 6 4 4 5 6 6 6 6 6 6 7 6
3 6 6 16 16 7 6 3 5 10 9 10 10 9 8 6 3 1 3 4 6 7 6 5 6 6 7 8 9 10 9 9 9 9 11 10 9 8 7 5 3 3 5 5 6 6 5 6 7
14 6 10 12 9 6 5 5 6 11 13 12 9 8 5 3 1 2 3 3 4 5 5 5 5 5 6 7 8 9 10 9 11 12 11 9 7 6 6 5 4 3 3 4 5 6 7 6 7
14 9 3 2 2 7 12 6 4 10 11 10 8 6 3 1 3 2 4 5 5 5 5 5 7 7 7 7 7 8 9 10 11 11 9 9 8 8 8 7 2 3 3 4 5 6 6 6 7
9 8 7 9 5 2 8 3 7 11 10 6 3 1 1 4 4 7 8 6 6 6 6 6 6 7 7 7 8 8 10 8 7 9 10 10 9 9 9 8 6 5 6 6 6 5 6 5 5
9 11 13 11 10 4 6 9 7 6 6 3 3 4 5 6 8 9 10 10 8 8 7 6 7 7 6 7 8 8 7 7 9 9 10 9 9 11 11 10 9 8 8 8 7 6 7 6 5
8 10 9 9 9 9 6 8 5 5 6 8 9 8 8 9 10 11 12 11 10 9 7 7 7 7 7 8 7 10 7 7 7 9 10 10 10 9 10 11 10 10 9 9 8 8 8 8 7
8 10 9 9 9 7 7 6 8 5 6 7 8 9 9 10 11 12 11 11 10 10 9 8 8 8 7 8 7 7 8 8 9 8 9 8 9 9 10 10 11 11 11 10 10 10 10 10 9
3 6 7 7 8 7 8 6 4 3 6 7 8 9 9 10 11 11 11 11 10 11 11 10 9 9 8 8 8 8 8 9 9 10 9 9 9 10 10 10 11 12 12 11 11 12 13 12 11
Wind_Direction
180 192 203 218 241 240 291 31 37 31 43 46 45 53 65 52 49 79 93 104 115 125 135 140 140 140 136 132 130 134 143 151 153 151 150 148 146 145 143 141 139 139 136 131 130 128 124 120 116
189 197 209 237 243 254 19 35 33 38 46 42 64 66 73 65 74 95 102 115 120 128 139 141 142 142 141 137 135 135 141 148 152 151 150 150 150 151 151 151 152 155 154 151 149 142 136 134 131
216 225 244 249 256 278 20 24 13 31 70 57 80 65 59 71 83 102 121 127 125 131 136 136 146 145 145 144 141 139 140 144 148 150 151 153 155 158 160 162 166 171 174 170 164 159 153 150 149
224 227 240 253 271 356 44 24 352 22 70 26 93 85 76 60 95 115 136 130 123 131 132 141 147 148 149 149 148 147 145 146 149 153 158 162 166 170 173 177 182 186 187 178 172 170 166 164 163
241 257 247 261 270 36 55 34 347 10 91 76 92 98 95 91 103 128 143 127 134 135 133 144 149 150 152 155 157 158 159 160 162 166 170 176 181 185 188 191 194 197 192 182 176 177 175 176 177
249 255 268 283 293 67 50 28 9 26 48 49 105 110 106 117 125 138 134 138 138 130 133 142 151 154 157 161 166 170 173 175 178 181 185 189 194 199 203 204 203 204 200 190 185 187 188 190 192
257 276 285 291 297 311 67 21 18 44 57 15 49 108 123 130 130 132 136 142 133 130 134 147 154 159 164 171 178 182 185 187 190 193 197 201 204 208 211 212 211 209 205 200 197 200 203 204 205
265 285 287 282 282 310 71 32 30 17 71 38 28 76 125 131 136 129 137 126 115 126 136 150 159 161 170 180 188 192 196 199 202 205 208 212 215 218 219 218 216 213 209 207 208 211 213 212 213
262 269 273 280 313 350 34 18 7 13 75 58 44 64 108 128 126 130 128 119 109 119 131 150 157 161 178 185 185 191 201 207 211 216 220 221 224 221 218 222 216 215 216 216 216 218 220 218 218
240 258 269 292 330 325 335 345 322 350 67 60 63 78 101 120 125 134 130 132 137 120 98 82 92 128 159 182 166 185 201 202 211 218 212 216 230 240 233 217 215 215 217 220 222 223 225 225 226
243 255 278 297 314 316 305 312 19 4 51 27 46 91 108 104 107 106 106 112 114 95 63 64 62 60 51 58 131 189 207 202 210 224 220 218 233 253 270 265 217 214 218 224 228 226 228 229 231
247 256 275 287 297 294 285 291 58 57 43 27 41 73 89 82 71 69 71 67 72 68 61 51 49 45 34 26 4 269 242 212 216 216 221 220 222 248 268 275 243 215 218 225 238 232 227 234 237
258 254 260 271 276 274 262 236 90 67 50 46 50 53 60 65 68 67 67 64 60 56 51 46 43 44 29 11 341 339 329 311 274 226 222 224 228 240 251 269 274 258 249 243 238 243 240 236 241
276 278 270 264 268 260 215 141 104 82 72 63 59 56 56 58 58 59 56 56 53 49 44 35 35 40 26 356 333 307 298 300 306 301 294 260 245 238 240 251 258 258 260 266 268 266 261 251 244
260 263 258 235 220 183 163 122 95 99 101 91 77 66 61 61 61 59 57 56 54 51 43 25 36 39 24 354 339 323 314 324 327 327 306 269 248 234 227 232 242 241 254 268 276 274 270 259 246
259 250 249 252 302 175 193 121 103 124 116 104 99 89 78 70 70 70 68 65 60 56 51 37 31 24 8 356 326 323 336 340 322 311 299 290 269 240 232 234 236 220 230 235 249 254 261 257 252
275 311 343 14 327 263 189 127 133 136 124 120 118 110 101 94 86 82 82 77 71 62 56 54 44 18 359 3 350 350 345 339 318 320 354 345 307 282 250 236 231 212 218 229 244 244 249 262 260
1 347 358 234 239 242 130 121 133 143 136 132 132 128 118 105 96 97 100 98 89 81 64 48 56 29 358 11 351 358 357 351 334 9 38 8 339 320 289 259 236 218 222 228 230 243 243 255 268
236 212 201 198 206 20 134 143 152 157 151 138 134 126 117 110 108 109 109 109 106 99 89 74 50 33 1 14 341 334 339 335 317 351 53 9 357 339 306 293 267 235 231 233 232 227 234 236 243
282 289 229 93 18 302 201 145 133 153 140 136 133 132 128 122 116 117 121 114 103 95 87 86 52 25 4 4 316 310 331 316 303 7 6 358 7 333 325 330 300 275 251 241 236 228 230 240 233
321 331 314 239 196 227 213 137 135 143 132 134 128 126 124 125 123 120 105 87 74 66 53 51 45 24 14 349 329 338 327 313 315 333 308 349 332 303 302 316 317 310 289 259 242 230 226 237 252
336 306 298 300 244 242 182 199 184 166 175 158 140 140 132 127 128 107 46 36 22 17 16 36 41 38 22 4 348 338 324 322 328 330 328 330 310 286 273 279 313 325 315 304 278 245 234 233 244
250 244 344 11 359 353 36 26 217 170 184 171 158 154 143 142 124 85 343 4 5 1 360 19 48 43 27 5 348 338 332 332 327 325 315 309 298 279 256 229 239 303 311 331 323 314 278 248 243
328 332 24 24 9 340 251 217 204 176 174 163 157 150 146 154 259 290 327 356 13 358 353 358 13 20 10 348 332 327 327 325 316 303 294 295 293 294 295 263 198 232 295 330 323 313 297 279 266
303 304 351 2 177 235 227 216 171 125 129 136 140 147 156 225 279 324 353 350 351 347 354 355 356 358 349 332 323 326 320 308 297 301 319 328 322 318 313 311 251 236 261 282 284 288 288 284 276
287 324 335 322 310 174 166 174 99 95 96 99 100 93 297 304 337 348 343 349 355 353 356 353 351 344 337 330 325 316 299 300 316 330 327 313 303 298 301 315 308 277 256 257 262 276 278 271 267
343 348 342 325 330 358 125 122 108 111 116 84 7 334 329 352 350 346 354 356 356 357 359 356 350 341 334 326 315 301 312 332 324 314 303 303 310 311 317 320 309 295 277 259 252 254 266 271 262
353 353 358 342 353 350 64 97 109 103 30 7 349 346 358 355 351 354 350 345 350 351 355 356 351 342 332 323 323 325 333 320 314 314 309 304 301 300 304 303 297 291 284 271 254 247 250 245 240
359 17 4 349 1 345 350 75 89 48 10 357 349 354 354 352 351 345 342 346 347 345 347 347 342 336 330 331 334 329 323 321 313 305 303 309 310 309 304 301 299 294 287 279 267 254 250 251 247
10 22 4 354 344 320 323 98 77 14 30 22 1 357 1 357 346 342 343 346 343 340 339 336 337 332 335 336 331 325 321 316 313 312 313 310 306 305 303 300 298 294 289 283 276 266 255 243 241
Height
1510 1510 1512 1516 1513 1506 1493 1474 1466 1465 1465 1467 1467 1467 1472 1477 1482 1494 1495 1494 1493 1495 1499 1501 1504 1507 1509 1512 1514 1517 1519 1521 1524 1526 1527 1529 1531 1533 1534 1535 1537 1538 1539 1540 1541 1542 1543 1544 1545
1509 1510 1514 1512 1505 1503 1486 1469 1468 1466 1467 1467 1467 1470 1474 1481 1486 1491 1495 1496 1495 1497 1499 1502 1505 1507 1509 1512 1514 1517 1519 1521 1524 1526 1527 1529 1531 1532 1534 1535 1537 1538 1539 1540 1542 1543 1544 1545 1546
1509 1512 1512 1501 1490 1487 1480 1468 1467 1464 1467 1466 1468 1473 1479 1485 1489 1492 1495 1497 1497 1498 1500 1503 1505 1508 1510 1512 1514 1517 1519 1521 1524 1526 1527 1529 1531 1532 1534 1535 1536 1538 1539 1540 1542 1543 1544 1545 1546
1510 1511 1507 1496 1486 1470 1468 1467 1467 1465 1470 1468 1469 1478 1485 1489 1490 1493 1496 1498 1498 1500 1501 1504 1506 1509 1511 1513 1515 1517 1519 1522 1524 1526 1527 1529 1530 1532 1533 1535 1536 1537 1539 1540 1541 1542 1544 1545 1546
1511 1507 1498 1488 1475 1465 1463 1467 1467 1466 1467 1468 1471 1479 1487 1491 1492 1494 1497 1499 1500 1502 1503 1506 1508 1510 1512 1514 1516 1518 1520 1522 1524 1525 1527 1528 1530 1531 1533 1534 1535 1537 1538 1540 1541 1542 1543 1544 1546
1510 1498 1494 1486 1470 1463 1462 1466 1467 1467 1469 1471 1473 1479 1488 1493 1494 1496 1499 1501 1503 1503 1504 1507 1509 1511 1513 1515 1517 1518 1520 1522 1523 1525 1527 1528 1529 1530 1532 1533 1535 1536 1537 1539 1540 1541 1542 1543 1545
1508 1498 1492 1482 1472 1465 1465 1468 1470 1470 1475 1477 1475 1479 1488 1493 1497 1498 1500 1503 1504 1504 1505 1508 1510 1512 1514 1516 1518 1519 1521 1522 1523 1525 1526 1527 1528 1529 1531 1532 1534 1535 1536 1537 1538 1540 1541 1542 1543
1504 1498 1492 1480 1473 1467 1466 1470 1473 1474 1477 1479 1480 1482 1489 1494 1497 1500 1502 1504 1507 1507 1508 1509 1511 1513 1515 1517 1518 1520 1521 1522 1523 1524 1525 1526 1527 1528 1529 1530 1532 1533 1534 1535 1536 1538 1539 1540 1541
1503 1502 1496 1480 1472 1468 1468 1473 1476 1478 1480 1485 1487 1487 1491 1496 1498 1501 1503 1506 1509 1511 1511 1512 1513 1513 1515 1516 1518 1519 1521 1522 1522 1523 1524 1525 1526 1526 1527 1528 1530 1531 1532 1533 1534 1535 1536 1537 1538
1499 1498 1488 1474 1471 1471 1472 1476 1479 1481 1484 1488 1491 1493 1496 1498 1500 1502 1505 1507 1510 1513 1514 1514 1514 1515 1517 1518 1518 1519 1520 1520 1521 1522 1522 1522 1524 1525 1526 1526 1527 1528 1529 1530 1531 1532 1533 1533 1534
1491 1490 1482 1477 1474 1474 1476 1478 1480 1483 1488 1493 1494 1495 1498 1500 1502 1503 1506 1508 1510 1512 1512 1513 1515 1516 1517 1518 1519 1519 1520 1520 1520 1520 1520 1521 1522 1523 1524 1525 1524 1524 1525 1526 1527 1528 1528 1529 1530
1485 1483 1481 1478 1477 1477 1478 1480 1483 1489 1496 1498 1497 1497 1500 1502 1503 1504 1506 1507 1508 1509 1511 1513 1514 1515 1517 1518 1518 1519 1519 1519 1519 1518 1518 1518 1519 1519 1520 1520 1521 1521 1521 1522 1522 1523 1524 1525 1526
1478 1477 1477 1477 1476 1476 1478 1481 1486 1495 1498 1500 1501 1501 1502 1503 1505 1506 1507 1508 1509 1510 1512 1514 1515 1516 1516 1517 1517 1517 1517 1517 1517 1516 1516 1516 1515 1515 1516 1517 1517 1517 1518 1518 1518 1519 1520 1521 1521
1477 1474 1472 1473 1474 1475 1478 1481 1487 1497 1501 1503 1505 1505 1506 1506 1507 1508 1508 1509 1510 1512 1513 1514 1515 1515 1515 1515 1515 1515 1515 1514 1514 1513 1513 1512 1511 1511 1511 1512 1513 1513 1513 1513 1513 1513 1513 1515 1516
1475 1474 1472 1471 1472 1474 1478 1485 1492 1499 1502 1505 1507 1508 1509 1509 1509 1509 1510 1511 1512 1513 1514 1515 1516 1515 1515 1514 1514 1514 1513 1513 1511 1510 1509 1509 1508 1507 1507 1507 1508 1508 1508 1508 1508 1508 1508 1509 1510
1472 1474 1477 1473 1473 1474 1479 1495 1497 1501 1502 1506 1508 1510 1511 1511 1511 1512 1512 1513 1513 1514 1514 1514 1515 1514 1514 1514 1513 1513 1512 1511 1510 1508 1507 1506 1505 1504 1504 1503 1503 1503 1503 1503 1503 1504 1503 1504 1505
1474 1485 1488 1490 1484 1479 1478 1494 1497 1500 1502 1505 1508 1511 1512 1513 1513 1514 1514 1514 1514 1515 1515 1515 1515 1515 1514 1514 1513 1512 1511 1509 1508 1506 1505 1503 1502 1502 1501 1500 1499 1499 1499 1498 1498 1499 1499 1500 1501
1493 1498 1503 1506 1492 1483 1481 1491 1494 1498 1500 1504 1507 1510 1512 1513 1515 1516 1516 1516 1516 1516 1516 1516 1516 1515 1514 1513 1512 1511 1510 1508 1506 1505 1502 1501 1500 1499 1498 1497 1496 1495 1495 1494 1494 1494 1495 1496 1498
1476 1481 1491 1491 1483 1481 1484 1490 1492 1495 1497 1501 1505 1509 1512 1514 1516 1517 1517 1517 1517 1517 1517 1516 1515 1514 1513 1512 1511 1509 1508 1506 1504 1503 1500 1498 1497 1496 1495 1493 1493 1492 1491 1491 1491 1491 1492 1493 1494
1468 1472 1477 1483 1481 1484 1485 1487 1491 1493 1495 1499 1504 1508 1512 1514 1516 1517 1518 1518 1518 1518 1517 1516 1515 1513 1512 1511 1509 1508 1506 1504 1503 1500 1498 1496 1494 1493 1492 1490 1489 1488 1488 1488 1488 1488 1489 1489 1491
1470 1476 1477 1480 1481 1482 1485 1495 1496 1496 1499 1502 1504 1508 1511 1514 1516 1517 1518 1518 1518 1518 1517 1516 1513 1512 1510 1508 1507 1505 1502 1501 1499 1497 1496 1494 1491 1490 1489 1487 1486 1484 1484 1484 1485 1486 1486 1486 1487
1483 1473 1472 1476 1484 1491 1491 1512 1505 1500 1502 1503 1505 1508 1511 1513 1515 1516 1517 1517 1517 1517 1516 1514 1512 1510 1507 1505 1503 1501 1499 1497 1495 1493 1492 1490 1488 1487 1486 1484 1483 1481 1481 1480 1481 1481 1482 1483 1483
1473 1468 1475 1483 1491 1498 1509 1523 1513 1505 1505 1502 1504 1506 1509 1512 1514 1515 1516 1516 1515 1515 1514 1513 1510 1507 1504 1502 1501 1498 1496 1494 1491 1489 1487 1485 1484 1483 1482 1481 1479 1478 1477 1477 1476 1477 1478 1479 1480
1467 1471 1479 1491 1507 1525 1517 1523 1512 1500 1498 1498 1501 1504 1508 1510 1512 1513 1513 1513 1513 1512 1511 1510 1507 1505 1502 1500 1498 1496 1493 1490 1487 1484 1483 1481 1480 1479 1479 1478 1476 1475 1475 1474 1473 1473 1473 1474 1475
1475 1483 1503 1521 1531 1526 1504 1514 1500 1486 1489 1495 1499 1503 1506 1508 1509 1510 1510 1511 1510 1509 1508 1506 1504 1502 1499 1497 1495 1492 1490 1487 1484 1481 1479 1477 1475 1475 1474 1474 1472 1471 1471 1471 1470 1469 1469 1468 1469
1470 1472 1492 1503 1500 1496 1498 1507 1494 1487 1492 1495 1498 1501 1504 1505 1506 1508 1508 1508 1507 1506 1505 1503 1501 1499 1496 1494 1491 1488 1486 1483 1480 1478 1475 1473 1471 1470 1470 1469 1468 1467 1466 1466 1466 1466 1465 1465 1464
1471 1472 1466 1475 1475 1482 1493 1496 1494 1490 1492 1494 1497 1499 1501 1503 1505 1506 1506 1506 1505 1504 1502 1500 1497 1495 1492 1490 1487 1484 1481 1478 1475 1472 1470 1468 1466 1465 1463 1462 1461 1461 1461 1461 1461 1460 1460 1460 1460
1469 1470 1474 1483 1494 1497 1489 1498 1501 1495 1494 1495 1496 1498 1500 1503 1504 1505 1505 1504 1503 1501 1499 1497 1494 1491 1488 1485 1482 1480 1476 1473 1470 1467 1465 1462 1460 1459 1457 1456 1455 1455 1455 1455 1455 1455 1455 1455 1455
1476 1478 1480 1482 1484 1501 1501 1503 1491 1494 1494 1495 1497 1499 1501 1502 1503 1504 1503 1502 1500 1498 1496 1493 1491 1488 1485 1481 1478 1474 1471 1468 1465 1462 1460 1457 1455 1453 1451 1449 1448 1448 1448 1448 1448 1448 1449 1449 1449
1476 1480 1484 1498 1499 1491 1494 1504 1488 1489 1491 1494 1497 1499 1501 1502 1502 1502 1501 1499 1497 1495 1493 1490 1487 1484 1481 1477 1473 1470 1466 1463 1460 1457 1455 1452 1449 1447 1445 1443 1441 1440 1440 1440 1440 1441 1442 1442 1443